Dalzell, IL

10:42 PM CST on February 21, 2017 (GMT -0600)
Illinois Valley Regional-Duncan

Weather History for KVYS - January, 2014

Change the Weather History Date:

Saturday, January 25, 2014

  Actual Average Record
Temperature  
Mean Temperature 20 °F -  
Max Temperature 34 °F 31 °F 57 °F (1973)
Min Temperature 7 °F 13 °F -7 °F (1985)
Degree Days  
Heating Degree Days 44    
Moisture  
Dew Point 10 °F    
Average Humidity 67    
Maximum Humidity 94    
Minimum Humidity 50    
Precipitation  
Precipitation 0.00 in - - ()
Sea Level Pressure  
Sea Level Pressure 29.70 in    
Wind  
Wind Speed 19 mph (WNW)    
Max Wind Speed 34 mph    
Max Gust Speed 41 mph    
Visibility 10 miles    
Events Rain    
Averages and records for this station are not official NWS values.
T = Trace of Precipitation, MM = Missing Value Source: NWS Daily Summary

Daily Weather History Graph

Daily Weather History Graph

Search for Another Location

Airport or City:

Trip Planner

Search our weather history database for the weather conditions in past years. The results will help you decide how hot, cold, wet, or windy it might be!

Date:

Astronomy

Jan. 25, 2014 Rise Set
Actual Time 7:14 AM CST 5:04 PM CST
Civil Twilight 6:44 AM CST 5:33 PM CST
Nautical Twilight 6:10 AM CST 6:07 PM CST
Astronomical Twilight 5:38 AM CST 6:40 PM CST
Moon 1:45 AM CST (1/25) 12:04 PM CST (1/25)
Length of Visible Light 10h 49m
Length of Day
9h 50m
Waning Crescent, 34% of the Moon is Illuminated
Jan 25
Waning Crescent
Jan 30
New
Feb 6
First Quarter
Feb 14
Full
Feb 22
Last Quarter

Hourly Weather History & Observations

Time (CST) Temp. Windchill Dew Point Humidity Pressure Visibility Wind Dir Wind Speed Gust Speed Precip Events Conditions
12:15 AM 30.2 °F 17.4 °F 27.0 °F 88% 29.50 in 3.0 mi WSW 20.7 mph 29.9 mph N/A   Light Freezing Rain
12:35 AM 30.0 °F 17.2 °F 27.5 °F 90% 29.48 in 7.0 mi WSW 20.7 mph 27.6 mph N/A   Overcast
12:55 AM 30.2 °F 18.5 °F 27.5 °F 90% 29.48 in 7.0 mi WSW 17.3 mph 24.2 mph N/A   Overcast
1:15 AM 30.2 °F 17.8 °F 27.3 °F 89% 29.48 in 5.0 mi WSW 19.6 mph - N/A   Light Freezing Rain
1:35 AM 30.9 °F 19.8 °F 28.2 °F 90% 29.48 in 3.0 mi WSW 16.1 mph 21.9 mph N/A Rain Light Freezing Rain
1:55 AM 31.6 °F 20.7 °F 29.3 °F 91% 29.47 in 4.0 mi WSW 16.1 mph 23.0 mph N/A   Overcast
2:15 AM 32.0 °F 21.6 °F 30.2 °F 93% 29.47 in 7.0 mi West 15.0 mph - N/A   Overcast
2:35 AM 33.3 °F 21.8 °F 31.6 °F 94% 29.47 in 10.0 mi West 19.6 mph 25.3 mph N/A   Overcast
2:55 AM 34.3 °F 23.2 °F 32.2 °F 92% 29.47 in 10.0 mi West 19.6 mph 24.2 mph N/A   Overcast
3:15 AM 34.3 °F 23.5 °F 32.0 °F 91% 29.47 in 10.0 mi West 18.4 mph 27.6 mph N/A   Overcast
3:35 AM 34.3 °F 24.2 °F 32.0 °F 91% 29.47 in 10.0 mi West 16.1 mph 26.5 mph N/A   Mostly Cloudy
3:55 AM 34.3 °F 23.9 °F 31.6 °F 90% 29.47 in 10.0 mi West 17.3 mph 24.2 mph N/A   Mostly Cloudy
4:15 AM 33.4 °F 22.7 °F 29.3 °F 85% 29.48 in 10.0 mi West 17.3 mph 25.3 mph N/A   Scattered Clouds
4:35 AM 32.9 °F 21.3 °F 26.4 °F 77% 29.49 in 10.0 mi WNW 19.6 mph 25.3 mph N/A   Mostly Cloudy
4:55 AM 31.8 °F 19.0 °F 23.2 °F 70% 29.50 in 10.0 mi WNW 23.0 mph 32.2 mph N/A   Scattered Clouds
5:15 AM 30.9 °F 19.4 °F 23.0 °F 72% 29.51 in 10.0 mi WNW 17.3 mph 21.9 mph N/A   Scattered Clouds
5:35 AM 30.2 °F 19.8 °F 23.7 °F 77% 29.51 in 10.0 mi WNW 13.8 mph 20.7 mph N/A   Scattered Clouds
5:55 AM 30.2 °F 18.9 °F 23.7 °F 77% 29.52 in 10.0 mi WNW 16.1 mph 23.0 mph N/A   Scattered Clouds
6:15 AM 30.0 °F 18.3 °F 23.4 °F 76% 29.53 in 10.0 mi WNW 17.3 mph 24.2 mph N/A   Clear
6:35 AM 30.0 °F 17.9 °F 21.9 °F 72% 29.54 in 10.0 mi WNW 18.4 mph 26.5 mph N/A   Clear
6:55 AM 28.9 °F 14.3 °F 18.0 °F 64% 29.55 in 10.0 mi WNW 26.5 mph 32.2 mph N/A   Clear
7:15 AM 27.1 °F 12.7 °F 13.1 °F 56% 29.56 in 10.0 mi WNW 23.0 mph 36.8 mph N/A   Clear
7:35 AM 25.5 °F 8.6 °F 10.9 °F 54% 29.58 in 10.0 mi NW 31.1 mph 39.1 mph N/A   Clear
7:55 AM 23.9 °F 9.5 °F 7.9 °F 51% 29.60 in 10.0 mi WNW 19.6 mph 33.4 mph N/A   Clear
8:15 AM 23.2 °F 6.8 °F 6.8 °F 50% 29.60 in 10.0 mi WNW 25.3 mph 34.5 mph N/A   Clear
8:35 AM 22.1 °F 4.2 °F 5.9 °F 50% 29.61 in 10.0 mi WNW 29.9 mph 40.3 mph N/A   Clear
8:55 AM 21.9 °F 4.5 °F 7.5 °F 54% 29.63 in 10.0 mi WNW 27.6 mph 33.4 mph N/A   Clear
9:15 AM 21.4 °F 2.4 °F 7.9 °F 56% 29.64 in 10.0 mi WNW 33.4 mph 39.1 mph N/A   Clear
9:35 AM 19.4 °F -0.3 °F 5.7 °F 55% 29.66 in 10.0 mi WNW 33.4 mph 38.0 mph N/A   Clear
9:55 AM 18.3 °F -2.1 °F 5.0 °F 56% 29.68 in 10.0 mi WNW 34.5 mph 41.4 mph N/A   Clear
10:15 AM 18.0 °F -2.6 °F 4.3 °F 55% 29.70 in 10.0 mi WNW 34.5 mph 41.4 mph N/A   Clear
10:35 AM 17.6 °F -3.1 °F 4.3 °F 56% 29.71 in 10.0 mi NW 34.5 mph 39.1 mph N/A   Clear
10:55 AM 17.6 °F -1.3 °F 4.5 °F 56% 29.72 in 10.0 mi NW 27.6 mph 38.0 mph N/A   Clear
11:15 AM 17.4 °F -1.5 °F 4.5 °F 57% 29.73 in 10.0 mi WNW 27.6 mph 36.8 mph N/A   Clear
11:35 AM 17.4 °F -1.9 °F 4.1 °F 56% 29.75 in 10.0 mi WNW 28.8 mph 34.5 mph N/A   Clear
11:55 AM 17.1 °F -1.4 °F 3.7 °F 56% 29.76 in 10.0 mi WNW 25.3 mph 33.4 mph N/A   Clear
12:15 PM 16.7 °F -1.5 °F 3.2 °F 55% 29.77 in 10.0 mi WNW 24.2 mph 32.2 mph N/A   Clear
12:35 PM 16.3 °F -3.6 °F 2.5 °F 55% 29.78 in 10.0 mi WNW 29.9 mph 35.7 mph N/A   Clear
12:55 PM 16.0 °F -3.2 °F 1.4 °F 53% 29.78 in 10.0 mi WNW 26.5 mph 35.7 mph N/A   Clear
1:15 PM 15.8 °F -3.1 °F 1.2 °F 53% 29.79 in 10.0 mi WNW 25.3 mph 35.7 mph N/A   Clear
1:35 PM 16.3 °F 0.5 °F 3.2 °F 56% 29.79 in 10.0 mi WNW 17.3 mph 25.3 mph N/A   Clear
1:55 PM 16.0 °F 0.6 °F 3.2 °F 57% 29.80 in 10.0 mi WNW 16.1 mph 26.5 mph N/A   Clear
2:15 PM 15.4 °F -2.4 °F 1.9 °F 55% 29.81 in 10.0 mi WNW 21.9 mph 28.8 mph N/A   Clear
2:35 PM 15.3 °F -1.3 °F 3.0 °F 58% 29.81 in 10.0 mi WNW 18.4 mph 27.6 mph N/A   Clear
2:55 PM 14.9 °F -1.3 °F 2.8 °F 59% 29.82 in 10.0 mi WNW 17.3 mph 25.3 mph N/A   Clear
3:15 PM 14.4 °F -2.0 °F 2.1 °F 58% 29.84 in 10.0 mi WNW 17.3 mph 28.8 mph N/A   Clear
3:35 PM 14.4 °F -2.0 °F 2.7 °F 60% 29.84 in 10.0 mi West 17.3 mph 28.8 mph N/A   Clear
3:55 PM 13.1 °F -4.2 °F 1.4 °F 60% 29.85 in 10.0 mi WNW 18.4 mph 29.9 mph N/A   Clear
4:15 PM 12.7 °F -5.5 °F 0.5 °F 58% 29.86 in 10.0 mi WNW 20.7 mph 26.5 mph N/A   Clear
4:35 PM 12.2 °F -5.3 °F -0.4 °F 57% 29.87 in 10.0 mi WNW 18.4 mph 25.3 mph N/A   Clear
4:55 PM 11.5 °F -7.6 °F -0.9 °F 57% 29.87 in 10.0 mi WNW 21.9 mph 25.3 mph N/A   Clear
5:15 PM 10.8 °F -6.2 °F -1.1 °F 59% 29.88 in 10.0 mi WNW 16.1 mph - N/A   Clear
5:35 PM 10.2 °F -5.0 °F -0.4 °F 62% 29.89 in 10.0 mi WNW 12.7 mph - N/A   Clear
5:55 PM 10.0 °F -2.9 °F -0.0 °F 64% 29.90 in 10.0 mi West 9.2 mph - N/A   Clear
6:15 PM 9.9 °F -4.0 °F -0.0 °F 64% 29.91 in 10.0 mi WNW 10.4 mph - N/A   Clear
6:35 PM 9.9 °F -4.7 °F -0.4 °F 63% 29.91 in 10.0 mi WNW 11.5 mph 18.4 mph N/A   Clear
6:55 PM 9.5 °F -5.2 °F -0.8 °F 63% 29.91 in 10.0 mi WNW 11.5 mph - N/A   Clear
7:15 PM 9.3 °F -6.8 °F -0.8 °F 64% 29.90 in 10.0 mi WNW 13.8 mph - N/A   Clear
7:35 PM 9.0 °F -5.1 °F -1.1 °F 64% 29.90 in 10.0 mi WNW 10.4 mph - N/A   Clear
7:55 PM 8.2 °F -1.8 °F -1.3 °F 65% 29.90 in 10.0 mi West 5.8 mph - N/A   Clear
8:15 PM 7.7 °F -3.7 °F -1.7 °F 66% 29.90 in 10.0 mi WNW 6.9 mph - N/A   Clear
9:15 PM 8.4 °F -3.9 °F -0.6 °F 67% 29.88 in 10.0 mi West 8.1 mph - N/A   Clear
9:35 PM 9.0 °F 2.4 °F 0.5 °F 69% 29.88 in 10.0 mi West 3.5 mph - N/A   Clear
9:55 PM 9.5 °F 3.0 °F 0.3 °F 66% 29.86 in 10.0 mi West 3.5 mph - N/A   Clear
10:15 PM 9.9 °F - 0.9 °F 67% 29.85 in 10.0 mi Calm Calm - N/A   Clear
10:35 PM 10.4 °F 4.0 °F 1.4 °F 67% 29.86 in 10.0 mi WSW 3.5 mph - N/A   Clear
10:55 PM 10.2 °F - 0.5 °F 65% 29.85 in 10.0 mi Calm Calm - N/A   Scattered Clouds
11:15 PM 11.3 °F - 2.1 °F 67% 29.85 in 10.0 mi Calm Calm - N/A   Mostly Cloudy
11:35 PM 11.8 °F - 2.1 °F 65% 29.83 in 10.0 mi Calm Calm - N/A   Overcast
11:55 PM 11.8 °F - 2.3 °F 66% 29.81 in 10.0 mi Calm Calm - N/A   Overcast